TimeEST,TemperatureF,Dew PointF,Humidity,Sea Level PressureIn,VisibilityMPH,Wind Direction,Wind SpeedMPH,Gust SpeedMPH,PrecipitationIn,Events,Conditions,WindDirDegrees,DateUTC
12:53 AM,36.0,24.1,62,30.47,10.0,NNW,4.6,-,N/A,,Clear,330,2012-11-14 05:53:00
1:53 AM,34.0,24.1,67,30.48,10.0,Calm,Calm,-,N/A,,Clear,0,2012-11-14 06:53:00
2:53 AM,34.0,24.1,67,30.48,10.0,Calm,Calm,-,N/A,,Clear,0,2012-11-14 07:53:00
3:53 AM,34.0,24.1,67,30.48,10.0,North,3.5,-,N/A,,Clear,350,2012-11-14 08:53:00
4:53 AM,34.0,24.1,67,30.50,10.0,Calm,Calm,-,N/A,,Clear,0,2012-11-14 09:53:00
5:53 AM,33.1,23.0,66,30.51,10.0,North,3.5,-,N/A,,Clear,360,2012-11-14 10:53:00
6:53 AM,28.9,23.0,78,30.53,10.0,Calm,Calm,-,N/A,,Clear,0,2012-11-14 11:53:00
7:53 AM,35.1,23.0,61,30.54,10.0,NNE,8.1,-,N/A,,Clear,30,2012-11-14 12:53:00
8:53 AM,37.9,25.0,60,30.55,10.0,NNE,10.4,-,N/A,,Scattered Clouds,30,2012-11-14 13:53:00
9:53 AM,39.0,26.1,60,30.55,10.0,NNE,5.8,-,N/A,,Mostly Cloudy,30,2012-11-14 14:53:00
10:53 AM,42.1,27.0,55,30.53,10.0,North,10.4,-,N/A,,Clear,10,2012-11-14 15:53:00
11:53 AM,44.1,27.0,51,30.51,10.0,North,9.2,-,N/A,,Clear,10,2012-11-14 16:53:00
12:53 PM,46.0,27.0,47,30.48,10.0,NE,4.6,-,N/A,,Clear,50,2012-11-14 17:53:00
1:12 PM,46.4,26.6,46,30.47,10.0,North,6.9,16.1,N/A,,Clear,360,2012-11-14 18:12:00
1:53 PM,46.9,28.0,48,30.47,10.0,Variable,4.6,-,N/A,,Clear,0,2012-11-14 18:53:00
2:53 PM,46.9,27.0,46,30.47,10.0,North,4.6,-,N/A,,Clear,360,2012-11-14 19:53:00
3:53 PM,46.0,26.1,46,30.48,10.0,North,5.8,-,N/A,,Clear,360,2012-11-14 20:53:00
4:53 PM,43.0,26.1,51,30.48,10.0,NNW,5.8,-,N/A,,Clear,340,2012-11-14 21:53:00
5:53 PM,41.0,24.1,51,30.49,10.0,NNE,3.5,-,N/A,,Clear,20,2012-11-14 22:53:00
6:53 PM,39.0,24.1,55,30.49,10.0,North,6.9,-,N/A,,Clear,10,2012-11-14 23:53:00
7:53 PM,37.9,24.1,57,30.50,10.0,Calm,Calm,-,N/A,,Clear,0,2012-11-15 00:53:00
8:53 PM,30.0,25.0,82,30.51,10.0,SW,3.5,-,N/A,,Clear,230,2012-11-15 01:53:00
9:53 PM,28.9,25.0,85,30.50,10.0,Calm,Calm,-,N/A,,Clear,0,2012-11-15 02:53:00
10:53 PM,27.0,24.1,89,30.47,10.0,Calm,Calm,-,N/A,,Clear,0,2012-11-15 03:53:00
11:53 PM,26.1,25.0,96,30.49,10.0,SW,5.8,-,N/A,,Clear,230,2012-11-15 04:53:00